Simultaneous Nadir Overpasses (SNOs) Predictions

Prediction of SNOs between NPP and TERRA Satellite Orbit:

Table of predicted SNOs for the next 14.0 days since TLE Epoch: 9/3/2016
Index Date (NPP) Time (NPP) Lat,Lon (NPP) SZA (NPP ) Date (TERRA) Time (TERRA) Lat,Lon (TERRA) SZA (TERRA ) Distance(km) Time Diff (sec)
1 09/04/2016 18:22:56 69.07, -97.81 62.15 09/04/2016 18:24:05 68.97, -96.49 62.04 53.47 69
2 09/04/2016 19:13:27 -68.39, 70.41 118.52 09/04/2016 19:13:43 -68.41, 70.45 118.50 2.88 16
3 09/04/2016 20:04:11 68.27,-122.12 61.37 09/04/2016 20:03:11 68.25,-122.11 61.35 2.42 60
4 09/07/2016 10:39:38 68.46, 18.78 62.53 09/07/2016 10:40:41 68.44, 18.74 62.51 2.62 63
5 09/07/2016 11:30:19 -68.32,-173.72 117.60 09/07/2016 11:30:11 -68.33,-173.76 117.59 1.96 8
6 09/07/2016 12:20:56 67.82, -5.78 61.92 09/07/2016 12:19:45 67.83, -6.71 61.93 38.94 71
7 09/10/2016 02:56:29 68.39, 134.65 63.48 09/10/2016 02:57:07 68.41, 134.59 63.49 3.10 38
8 09/10/2016 03:47:11 -68.31, -57.93 116.60 09/10/2016 03:46:37 -68.30, -57.91 116.61 0.99 34
9 09/12/2016 18:22:49 -69.09, 82.18 114.82 09/12/2016 18:23:58 -68.99, 83.55 114.92 55.70 69
10 09/12/2016 19:13:22 68.38,-109.56 64.49 09/12/2016 19:13:34 68.37,-109.57 64.47 0.98 12
11 09/12/2016 20:04:03 -68.24, 57.93 115.65 09/12/2016 20:03:04 -68.27, 57.94 115.62 2.71 59
12 09/15/2016 10:39:30 -68.44,-161.17 114.45 09/15/2016 10:40:34 -68.45,-161.23 114.44 2.63 64
13 09/15/2016 11:30:14 68.32, 6.29
